Weather Roundup
Issued by NWS Chicago, IL

Home | Current Version | Previous Version | Text Only | Print | Product List | Glossary Off
Versions: 1 2 3 4 5 6 7 8 9 10 11 12 13 14 15 16 17 18 19 20 21 22 23 24 25 26 27 28 29 30 31 32 33 34 35 36 37 38 39 40 41 42 43 44 45 46 47 48 49 50

000
NZUS59 KLOT 012008
HRRLOT

CHICAGO AREA WEATHER ROUNDUP
NATIONAL WEATHER SERVICE CHICAGO/ROMEOVILLE IL
300 PM CDT SUN MAY 01 2016

NOTE: "FAIR" INDICATES FEW OR NO CLOUDS BELOW 12,000 FEET WITH NO
SIGNIFICANT WEATHER AND/OR OBSTRUCTIONS TO VISIBILITY.

* THESE STATIONS ARE NOT UNDER NWS QUALITY CONTROL. THEY ALSO MAY NOT
  REPORT WEATHER SUCH AS PRECIPITATION OR FOG.

ILZ005-006-012>014-019>023-012100-
NORTHEAST ILLINOIS

CITY           SKY/WX    TMP DP  RH WIND       PRES   REMARKS
OHARE          CLOUDY    48  44  86 NE10      30.00S
MIDWAY         CLOUDY    51  45  79 N9        30.00F
AURORA         CLOUDY    51  46  83 NE10      30.01R
LANSING*       CLOUDY    50  46  86 N10       29.99F FOG
JOLIET*        CLOUDY    53  48  84 NE10G16   29.99F
WAUKEGAN       CLOUDY    47  42  83 N14G20    30.02R
DUPAGE AIRPORT CLOUDY    50  44  80 NE12      30.00R
WHEELING       CLOUDY    48  43  82 NE10      30.03R
KANKAKEE*      CLOUDY    55  50  84 N7        29.97F
MORRIS*        CLOUDY    52  47  83 NE5       29.98S
LEWIS AIRPORT* CLOUDY    50  46  84 NE10      29.99F
$$

WIZ051-052-058>065-066-070>072-012100-
SOUTHEAST WISCONSIN

CITY           SKY/WX    TMP DP  RH WIND       PRES   REMARKS
MILWAUKEE      CLOUDY    46  40  79 NE16      30.03F
KENOSHA*       CLOUDY    48  42  80 NE14      30.03R
RACINE*        CLOUDY    45  39  79 N12G20    30.04S
BURLINGTON     CLOUDY    49  43  78 E9        30.02S
WAUKESHA       MOSUNNY   54  39  58 NE12G23   30.03S
WEST BEND      CLOUDY    54  41  62 NE18G25   30.03S
$$

INZ001>003-010>013-019-020-012100-
NORTHWEST INDIANA

CITY           SKY/WX    TMP DP  RH WIND       PRES   REMARKS
GARY*          CLOUDY    50  50 100 N8        30.00S FOG
MICHIGAN CITY* NOT AVBL
RENSSELAER*    NOT AVBL
VALPARAISO     CLOUDY    55  49  80 N7        29.98S
$$

LMZ740>746-012100-
SOUTHERN LAKE MICHIGAN

STATION/POSITION TIME  SKY/WX   TEMP WIND        PRES    VSBY
                                AIR  DIR/SP/G
                 (UTC)          (F)  (DEG/KT/KT) (MB)    (MI)
HARRISON CRIB    1900            44   20/ 12/ 13   N/A
BURNHAM HARBOR   2000            45  350/  8/ 11   N/A
CALUMET HARBOR   1900            44  350/ 10/ 12 1015.6R
BURNS HARBOR     1916            45   20/  9/ 11 1016.3R
MICHIGAN CITY    1900            45  360/  9/ 10   N/A
$$

ABBREVIATIONS USED IN REMARKS
   TC - TEMPERATURE IN CELSIUS
  WCI - WIND CHILL INDEX
   HX - HEAT INDEX
  VSB - VISIBILITY
$$



USA.gov is the U.S. government's official web portal to all federal, state and local government web resources and services.